Regional Weather Roundup
Issued by NWS New Orleans/Baton Rouge, LA

Home | Current Version | Previous Version | Text Only | Print | Product List | Glossary On
Versions: 1 2 3 4 5 6 7 8 9 10 11 12 13 14 15 16 17 18 19 20 21 22 23 24 25 26 27 28 29 30 31 32 33 34 35 36 37 38 39 40 41 42 43 44 45 46 47 48 49 50
075
ASUS44 KLIX 211405
RWRLIX
NEW ORLEANS REGIONAL WEATHER ROUNDUP
NATIONAL WEATHER SERVICE NEW ORLEANS LA
800 AM CST SUN DEC 21 2014

NOTE: "FAIR" INDICATES FEW OR NO CLOUDS BELOW 12,000 FEET WITH NO
      SIGNIFICANT WEATHER AND/OR OBSTRUCTIONS TO VISIBILITY.
      SKY/WX - SKY CONDITION AND SIGNIFICANT WEATHER.
      TMP - AIR TEMPERATURE.     DP    - DEWPOINT TEMPERATURE.
      RH  - RELATIVE HUMIDITY.   PRES  - PRESSURE.
      HI  - HEAT INDEX.          WCI   - WIND CHILL INDEX.

*  THESE STATIONS ARE NOT NWS OR FAA STATIONS AND ARE NOT UNDER
   NWS QUALITY CONTROL.

LAZ038-040-048-061>063-065>067-069-211500-
SOUTHEAST LOUISIANA

CITY           SKY/WX    TMP DP  RH WIND       PRES   REMARKS
N.O. AUDUBON     N/A     52  50  92 MISG        N/A
N.O. INTL ARPT CLOUDY    52  48  86 E6        30.10F
N.O. LAKEFRONT CLOUDY    54  48  80 E10       30.11S
N.O. DOWNTOWN*   N/A     52  45  76 NE6       30.11F
SLIDELL        CLOUDY    49  46  90 CALM      30.11R
BATON ROUGE    MOSUNNY   47  44  90 NE3       30.11F
BOOTHVILLE     CLOUDY    55  53  93 NE7       30.10R
BELLE CHASSE   CLOUDY    53  49  86 NE6       30.10S
BOGALUSA*        N/A     46  42  88 N6        30.14R
GALLIANO*      CLOUDY    55  52  89 MISG      30.11R
NEW ROADS*     CLOUDY    46  44  90 CALM      30.13S
GONZALES*      CLOUDY    50  49  98 NE3       30.11F
HAMMOND*       NOT AVBL
HOUMA*         NOT AVBL
PORT FOURCHON* CLOUDY    55  52  88 NE8       30.13R

$$

MSZ070-080>082-211500-
SOUTHERN MISSISSIPPI

CITY           SKY/WX    TMP DP  RH WIND       PRES   REMARKS
MCCOMB         CLOUDY    43  39  86 NE7       30.13S
GULFPORT       CLOUDY    50  47  89 N6        30.12R
BILOXI         PTSUNNY   50  49  97 NE5       30.12R
PASCAGOULA     CLOUDY    50  48  93 N6        30.11R
STENNIS ARPT*  MOSUNNY   48  45  87 E8        30.12

$$

COASTAL OBSERVATIONS
LAKE AND NEARSHORE STATIONS

STATION/POSITION TIME  TEMP    WIND        PRES    WAVE
                       AIR SEA DIR/SP/G            HT/PER
                 (UTC) (F)     (DEG/KT/KT) (MB)    (FT/S)
PASCAGOULA       1400   51      20/  6/  7 1018.7
WAVELAND YACHT   1400   50      40/  6/  7 1018.9
GRAND ISLE       1400   54 60   60/  8/ 11 1019.4
SOUTHWEST PASS   1400   57                 1018.8
NEW CANAL        1400   53 55   60/ 11/ 12 1019.3
SHELL BEACH      1400   53 56   50/ 11/ 12 1018.8

OFFSHORE STATIONS

STATION/POSITION TIME  TEMP    WIND        PRES    WAVE
                       AIR SEA DIR/SP/G            HT/PER
                 (UTC) (F)     (DEG/KT/KT) (MB)    (FT/S)
64 S DAUPHIN ISL 1400   64 74   40/ 14/ 16 1018.1    5/ 6

$$




USA.gov is the U.S. government's official web portal to all federal, state and local government web resources and services.